Location: Makanda
(37.6176°N, 89.2090°W)
Time: 05:16:00
(UTC+00:00)

Cosmos 2237 Rocket - Pass Details

Date: 23 September 2019
Orbit: 833 x 851 km, 71.0° (Epoch: 14 October)

Event Time Altitude Azimuth Distance (km) Brightness Sun altitude
Rises 01:32:26 0° 335° (NNW) 3,423 6.0 -20.1°
Reaches altitude 10° 01:34:54 10° 332° (NNW) 2,484 5.2 -20.5°
Maximum altitude 01:40:33 68° 251° (WSW) 916 2.5 -21.6°
Enters shadow 01:44:38 19° 172° (S) 1,901 3.8 -22.4°
